Temperature
6 6 6 6 6 6 6 6 6 6 6 6 6 6 6 6 6 6 6 6 6 6 6 6 6 6 5 5 5 5 5 5 5 4 4 4 4 4 4 4 4 4 4
6 6 6 5 5 5 5 5 5 5 5 5 5 5 5 5 5 5 5 5 5 5 5 5 5 5 5 5 5 5 5 4 4 4 4 4 4 4 3 3 3 3 3
5 5 5 5 5 5 5 5 5 5 5 5 5 5 5 5 5 5 5 5 5 5 5 5 5 5 5 5 4 4 4 4 4 4 3 3 3 3 3 3 3 3 3
5 5 5 5 5 5 5 5 5 5 5 5 5 5 5 5 5 5 5 4 4 4 4 4 4 4 4 4 4 4 4 3 3 3 3 3 2 2 2 3 2 2 2
5 5 5 5 4 4 4 4 4 4 4 4 4 4 4 4 4 4 4 4 4 4 4 4 4 4 4 4 3 3 3 3 3 3 2 2 2 2 2 2 2 2 2
4 4 4 4 4 4 4 4 4 4 4 4 4 4 4 4 4 4 4 3 3 3 3 3 3 3 3 3 3 3 3 3 2 2 2 2 2 2 1 1 1 1 1
4 4 4 3 3 3 3 3 3 3 3 3 3 3 3 3 3 3 3 3 3 3 3 3 3 3 3 2 2 2 2 2 2 2 2 2 1 1 1 0 0 -0 -0
3 3 3 3 3 3 3 3 3 3 3 3 3 3 3 3 3 2 2 2 2 2 2 2 2 2 2 2 2 2 2 2 1 1 1 1 1 0 0 -0 -1 -1 -1
2 2 2 2 2 2 2 2 2 2 2 2 2 2 2 2 2 2 2 2 2 2 2 2 2 2 1 1 1 1 1 1 1 1 1 0 0 -0 -0 -1 -1 -2 -2
2 2 2 2 2 2 2 2 2 2 2 1 2 2 1 1 1 1 1 1 1 1 1 1 1 1 1 1 1 1 1 1 0 0 0 -0 -0 -1 -1 -1 -2 -2 -3
1 1 1 1 1 1 1 1 1 1 1 1 1 1 1 1 1 1 1 1 1 1 1 1 0 0 0 0 0 0 -0 -0 -0 -0 -1 -1 -1 -1 -2 -2 -2 -2 -3
1 1 1 1 1 1 1 0 0 0 0 0 0 0 0 0 -0 -0 -0 -0 -0 -0 -0 -0 -0 -0 -0 -1 -1 -1 -1 -1 -1 -1 -1 -2 -2 -2 -2 -2 -3 -3 -3
0 0 0 0 0 0 0 -0 -0 -0 -0 -0 -0 -0 -0 -0 -0 -1 -1 -1 -1 -1 -1 -1 -1 -1 -1 -1 -1 -2 -2 -2 -2 -2 -2 -2 -2 -3 -3 -3 -3 -4 -4
-0 -0 -0 -0 -0 -0 -1 -1 -1 -1 -1 -1 -1 -1 -1 -1 -1 -1 -1 -1 -1 -1 -1 -2 -2 -2 -2 -2 -2 -2 -2 -2 -2 -3 -3 -3 -3 -3 -4 -4 -4 -4 -4
-1 -1 -1 -1 -1 -1 -1 -1 -1 -1 -1 -2 -2 -2 -2 -1 -2 -2 -2 -2 -2 -2 -2 -2 -2 -2 -3 -3 -3 -3 -3 -3 -3 -3 -3 -4 -4 -4 -4 -4 -5 -5 -5
-2 -2 -2 -2 -2 -2 -2 -2 -2 -2 -2 -2 -2 -2 -2 -2 -2 -2 -2 -2 -2 -2 -3 -3 -3 -3 -3 -3 -3 -3 -4 -4 -4 -4 -4 -4 -4 -4 -5 -5 -5 -5 -6
-2 -2 -3 -3 -3 -3 -3 -3 -3 -3 -3 -3 -3 -3 -3 -3 -3 -3 -3 -3 -3 -3 -3 -3 -3 -3 -3 -4 -4 -4 -4 -4 -4 -5 -5 -5 -5 -5 -5 -6 -6 -6 -6
-3 -3 -3 -3 -3 -3 -3 -3 -3 -3 -3 -3 -3 -3 -3 -3 -3 -3 -3 -3 -3 -3 -3 -3 -4 -4 -4 -4 -4 -5 -5 -5 -5 -5 -5 -5 -6 -6 -6 -6 -6 -6 -7
-4 -4 -4 -4 -4 -4 -4 -4 -4 -4 -4 -4 -4 -4 -4 -4 -4 -4 -4 -4 -4 -4 -4 -4 -4 -4 -4 -5 -5 -5 -5 -5 -6 -6 -6 -6 -6 -6 -6 -7 -7 -7 -7
-4 -4 -4 -4 -4 -4 -4 -5 -5 -5 -5 -4 -4 -4 -4 -4 -4 -4 -4 -4 -5 -5 -5 -5 -5 -5 -5 -5 -5 -6 -6 -6 -6 -6 -6 -6 -7 -7 -7 -7 -7 -7 -8
-5 -5 -5 -5 -5 -5 -5 -5 -5 -5 -5 -5 -5 -5 -5 -5 -5 -5 -5 -5 -5 -5 -5 -5 -5 -6 -6 -6 -6 -6 -6 -6 -6 -7 -7 -7 -7 -7 -7 -7 -8 -8 -8
-6 -6 -6 -6 -6 -6 -6 -6 -6 -6 -6 -6 -6 -5 -5 -5 -5 -5 -5 -6 -6 -6 -6 -6 -6 -6 -6 -6 -6 -6 -7 -7 -7 -7 -7 -7 -7 -8 -8 -8 -8 -8 -8
-6 -6 -6 -6 -6 -6 -6 -6 -6 -6 -6 -6 -6 -6 -6 -6 -6 -6 -6 -6 -6 -6 -6 -6 -6 -6 -6 -7 -7 -7 -7 -7 -7 -7 -8 -8 -8 -8 -8 -8 -8 -9 -9
-7 -7 -7 -7 -7 -7 -7 -7 -7 -7 -7 -7 -7 -7 -7 -7 -7 -7 -7 -7 -7 -7 -7 -7 -7 -7 -7 -7 -7 -7 -7 -7 -7 -8 -8 -8 -8 -8 -8 -9 -9 -9 -9
-8 -8 -8 -8 -7 -7 -7 -7 -7 -7 -7 -7 -7 -7 -7 -7 -7 -7 -7 -7 -7 -7 -7 -7 -7 -7 -7 -7 -7 -7 -7 -8 -8 -8 -8 -8 -9 -9 -9 -9 -9 -9 -9
-8 -8 -8 -8 -8 -8 -8 -8 -8 -8 -8 -8 -8 -8 -8 -8 -8 -8 -8 -8 -8 -8 -8 -8 -8 -8 -8 -8 -8 -8 -8 -8 -8 -8 -9 -9 -9 -9 -9 -9 -9 -9 -9
Wind_Speed
3 2 2 2 2 2 2 3 3 3 3 4 5 5 5 5 5 5 5 5 5 4 4 5 5 4 3 3 3 3 3 3 3 2 1 2 2 3 2 4 5 5 6
2 2 2 2 2 2 2 2 2 2 3 3 3 4 4 4 5 6 6 6 6 6 5 5 5 4 5 4 4 4 4 4 4 4 2 2 3 3 2 2 3 4 5
0 1 1 1 1 2 2 2 2 2 2 2 3 4 4 4 5 5 6 6 6 6 6 6 6 6 6 4 4 4 4 4 4 4 3 2 2 1 1 1 2 3 4
0 0 1 1 1 2 2 1 2 2 2 2 3 3 3 4 4 5 5 5 5 5 5 6 7 7 7 7 5 5 5 5 4 4 3 3 2 2 2 2 2 2 2
0 1 1 1 1 1 0 1 1 1 2 2 2 2 2 3 4 5 5 5 5 5 4 5 5 7 8 8 6 6 6 6 5 4 4 3 3 3 3 3 3 2 2
1 1 2 1 1 0 0 0 0 1 1 1 2 2 2 3 4 6 5 4 5 5 5 4 4 6 8 10 9 9 9 8 7 6 5 5 5 5 4 3 3 1 3
1 2 1 1 1 1 1 1 0 0 0 1 1 2 3 3 4 5 6 4 4 4 5 4 4 4 6 5 6 7 8 10 10 7 7 7 6 6 5 4 4 4 4
2 2 2 1 1 1 1 1 1 1 1 1 2 2 2 2 4 5 5 3 3 4 4 5 5 4 5 5 5 4 4 6 7 6 7 7 7 6 6 6 5 4 2
2 2 2 1 1 1 1 1 1 1 1 1 1 2 2 2 3 4 4 3 2 3 3 4 5 5 7 7 5 4 4 4 6 8 8 8 8 9 8 4 3 2 3
3 3 2 2 1 1 2 2 1 1 1 1 1 1 2 2 3 4 4 2 2 2 2 3 5 6 7 7 5 5 5 5 4 3 4 5 5 6 8 6 5 4 3
4 3 2 2 1 1 1 1 1 1 1 1 1 1 1 2 3 4 4 3 3 2 2 2 2 5 6 7 6 5 6 4 4 4 3 3 3 3 4 5 6 5 5
3 3 3 2 2 1 1 1 1 1 1 1 1 2 1 1 1 2 3 3 3 3 3 2 2 4 5 5 4 5 6 4 3 3 3 3 3 4 4 5 6 7 7
4 4 3 3 2 2 1 1 1 1 0 1 0 1 2 2 1 2 2 3 3 2 2 3 3 3 3 3 3 4 4 3 3 3 4 4 3 3 3 3 3 4 4
4 4 3 3 3 3 2 1 1 1 1 1 1 1 2 2 1 1 1 1 1 1 1 1 1 2 1 1 2 2 2 2 3 4 3 3 2 2 3 3 3 2 2
4 4 4 3 2 3 3 2 2 2 2 2 2 2 2 2 3 3 2 1 1 2 1 0 0 0 1 1 1 1 1 2 2 2 2 2 2 3 3 2 2 2 3
4 4 3 3 2 2 2 3 5 4 4 3 3 2 3 3 3 3 3 3 3 2 1 1 1 2 2 2 2 2 2 2 2 2 3 3 3 3 3 2 2 3 4
3 4 3 3 3 2 2 2 3 5 5 4 3 3 3 3 3 2 2 2 3 2 1 2 2 2 3 3 2 2 3 2 2 3 3 3 3 3 3 3 3 4 4
4 4 4 3 2 2 2 2 2 2 3 4 4 4 3 3 2 2 1 1 1 0 1 2 2 2 3 3 3 2 2 2 3 3 3 3 3 3 3 4 4 4 4
4 3 3 3 2 2 2 2 2 2 2 3 3 4 4 4 3 2 2 1 1 1 1 1 1 2 2 2 3 3 3 3 3 3 3 4 4 3 4 4 4 6 5
4 6 5 3 3 3 2 2 2 2 2 2 3 3 3 3 2 2 2 2 1 2 1 2 2 2 2 2 2 2 3 3 3 3 3 3 4 4 4 5 4 4 4
4 5 7 4 3 3 3 3 3 2 2 3 3 4 4 2 2 2 2 1 2 2 2 2 2 2 2 2 2 3 3 3 3 3 3 3 3 3 3 4 4 4 4
4 4 4 4 3 3 3 3 3 3 3 3 3 4 5 3 2 2 2 2 2 2 2 2 2 2 2 2 2 2 3 3 3 3 3 3 3 3 3 3 3 3 4
4 4 4 4 4 5 4 3 3 3 3 3 3 3 3 3 2 2 3 3 3 3 2 2 2 2 2 3 3 3 3 4 3 3 3 3 3 3 3 4 4 4 4
3 4 4 4 4 4 4 4 3 3 3 3 3 3 3 3 3 3 3 3 3 2 3 3 3 3 4 4 5 6 6 6 6 5 5 4 4 4 4 4 4 5 5
3 3 4 4 4 4 4 4 4 4 4 4 4 4 4 4 4 4 3 3 3 3 4 4 4 4 5 6 6 7 8 8 8 7 6 4 5 5 4 4 4 4 4
3 3 3 3 3 4 4 4 4 4 4 4 4 4 4 4 4 4 4 3 3 4 4 4 5 6 7 7 8 9 9 9 9 9 7 5 5 5 4 4 5 4 5
Wind_Direction
213 216 220 221 214 200 202 210 204 198 193 200 202 199 197 197 194 190 193 183 183 185 182 181 188 178 178 169 164 168 172 165 195 227 193 170 172 186 209 218 226 231 234
230 219 220 221 207 205 218 221 204 203 203 204 200 197 198 196 192 191 193 190 187 191 193 189 196 184 181 178 178 182 184 179 181 204 203 196 200 196 201 219 235 234 246
220 213 231 228 213 218 226 214 200 198 201 201 194 199 200 195 194 197 192 193 196 198 197 199 202 190 193 186 184 190 189 183 175 181 200 196 200 185 187 223 241 246 258
159 197 241 250 234 224 221 195 191 185 190 202 208 208 202 195 196 197 193 198 201 203 204 205 203 197 197 188 189 191 183 174 170 178 192 199 204 189 173 203 245 235 260
311 277 269 275 271 243 202 183 176 175 189 192 196 203 197 198 203 199 196 198 199 202 207 209 210 203 200 195 192 188 182 180 179 185 196 194 199 191 203 195 222 256 263
315 297 309 323 335 322 295 249 179 185 186 175 188 196 203 219 211 205 196 194 195 198 208 211 211 204 206 207 207 201 194 188 189 191 200 204 213 205 194 191 199 209 267
335 328 331 346 355 346 345 7 326 261 191 198 208 202 216 222 207 205 199 191 194 201 204 202 208 207 202 196 206 209 213 213 204 193 197 208 207 201 188 196 203 212 234
344 338 340 0 5 359 7 343 311 296 240 240 239 226 220 227 211 207 202 192 193 203 203 202 204 201 200 190 184 194 215 218 212 206 206 207 206 197 192 201 209 222 244
347 332 326 337 348 349 326 296 283 261 266 256 245 234 232 248 226 208 190 181 196 211 210 206 203 204 208 198 185 196 218 227 222 218 220 221 220 215 199 178 184 206 254
333 325 320 320 318 299 288 288 291 259 253 263 273 248 230 243 240 216 192 184 199 215 221 218 214 214 214 208 196 196 220 229 206 207 216 223 220 218 212 201 193 209 232
329 334 337 337 324 304 311 312 307 320 329 317 303 298 248 244 238 217 201 195 197 206 220 221 220 217 220 219 215 210 226 217 193 194 205 209 206 206 213 213 205 201 214
347 348 342 340 340 351 7 350 351 4 356 329 340 339 329 308 290 232 219 222 213 208 218 214 215 219 226 229 231 226 228 220 191 186 200 213 214 217 220 221 222 223 226
3 357 349 352 353 358 18 11 357 353 312 299 321 308 316 327 319 299 260 242 237 238 209 205 219 228 233 240 235 233 230 211 197 204 217 225 219 215 212 219 228 236 248
5 357 360 5 5 10 13 12 358 326 297 297 298 294 302 311 306 298 284 272 244 242 208 194 216 222 220 237 255 250 231 210 207 214 217 219 201 201 213 210 223 226 245
5 4 6 10 7 6 7 3 346 320 286 278 267 257 260 281 281 278 268 251 225 212 176 109 74 221 215 226 240 245 234 219 224 216 211 213 214 219 231 223 219 220 237
7 4 0 357 359 2 5 3 7 355 342 332 308 292 296 286 288 278 273 265 251 233 216 200 224 228 227 228 231 242 240 235 229 223 220 217 221 225 233 234 231 230 241
2 354 351 352 350 348 350 349 346 357 5 356 345 332 321 312 311 301 290 279 252 222 216 208 221 226 230 225 226 235 244 241 232 225 223 220 221 223 226 235 238 238 242
1 354 350 341 338 335 330 326 322 330 339 343 346 346 344 340 337 332 320 349 314 318 235 225 233 233 232 231 230 233 241 241 233 228 228 226 220 219 226 233 235 237 245
356 349 345 339 336 333 329 328 327 325 321 323 335 343 349 350 2 5 22 25 281 277 274 257 250 244 240 234 233 233 236 240 235 229 233 228 221 217 228 235 241 250 253
353 351 351 347 346 343 338 334 330 325 320 319 322 326 338 350 356 354 358 353 328 302 289 278 269 257 251 242 241 241 242 239 232 232 236 229 224 222 230 236 239 244 249
348 347 350 350 348 341 337 334 328 323 318 318 318 323 331 334 325 320 324 324 314 305 298 290 281 267 262 260 248 243 244 246 238 234 233 229 224 231 236 237 241 244 248
347 345 343 337 336 337 335 332 329 323 317 315 320 326 331 342 331 319 316 315 315 309 299 291 282 271 258 250 249 250 250 252 245 232 230 232 232 234 237 240 245 248 248
343 343 342 338 335 333 336 334 328 320 314 310 313 319 324 322 318 315 311 311 312 309 301 288 281 277 263 255 245 233 242 248 243 228 227 234 234 234 234 239 242 249 251
339 337 335 333 332 330 326 323 320 318 316 313 311 309 308 307 307 307 308 309 309 304 293 284 275 271 274 274 268 259 253 256 252 237 225 228 234 237 236 239 243 245 250
331 328 325 322 320 318 317 316 316 314 311 309 307 305 305 305 304 304 304 304 303 301 295 287 280 277 278 277 275 270 270 271 263 248 231 225 231 232 233 238 243 246 251
322 317 312 309 306 306 307 307 308 307 304 303 303 300 299 297 296 296 296 297 297 295 290 283 277 277 278 279 280 282 281 276 269 262 246 226 226 231 231 239 240 245 251
Height
1459 1460 1460 1461 1462 1463 1464 1465 1466 1468 1469 1471 1472 1474 1475 1477 1479 1480 1482 1484 1486 1488 1490 1491 1493 1495 1497 1498 1500 1501 1502 1503 1504 1505 1507 1509 1510 1512 1513 1514 1515 1515 1516
1457 1457 1458 1459 1459 1460 1461 1462 1463 1465 1466 1467 1469 1470 1472 1473 1475 1477 1478 1480 1482 1484 1486 1487 1489 1491 1492 1493 1495 1496 1497 1499 1500 1500 1503 1504 1506 1507 1508 1509 1510 1511 1511
1455 1455 1456 1456 1456 1457 1458 1459 1460 1462 1463 1464 1465 1466 1468 1469 1471 1473 1475 1476 1478 1480 1482 1483 1485 1486 1487 1488 1490 1491 1493 1494 1495 1496 1497 1499 1501 1502 1504 1505 1505 1506 1506
1453 1453 1453 1453 1454 1455 1455 1456 1457 1458 1459 1460 1462 1463 1464 1465 1467 1468 1470 1472 1474 1475 1477 1478 1480 1481 1483 1484 1485 1487 1488 1489 1490 1491 1493 1494 1496 1497 1498 1499 1500 1500 1500
1450 1450 1450 1451 1451 1452 1452 1453 1454 1455 1456 1457 1458 1459 1460 1461 1463 1464 1466 1468 1469 1471 1472 1474 1475 1476 1478 1480 1481 1482 1483 1484 1485 1486 1488 1489 1490 1491 1492 1493 1493 1494 1494
1448 1448 1448 1448 1449 1449 1450 1450 1451 1452 1453 1454 1455 1456 1457 1458 1459 1461 1462 1463 1465 1466 1467 1468 1470 1471 1473 1474 1476 1477 1478 1479 1480 1481 1482 1483 1484 1486 1487 1487 1488 1488 1488
1446 1446 1446 1446 1446 1447 1447 1448 1448 1449 1450 1451 1451 1452 1453 1454 1456 1457 1458 1459 1460 1461 1462 1464 1465 1466 1468 1469 1470 1472 1473 1474 1475 1476 1477 1478 1479 1481 1481 1482 1482 1482 1482
1444 1444 1444 1444 1444 1444 1445 1445 1446 1446 1447 1448 1448 1449 1450 1451 1452 1453 1454 1455 1456 1457 1458 1459 1461 1462 1463 1464 1465 1466 1467 1469 1470 1471 1472 1473 1474 1475 1476 1476 1476 1476 1476
1442 1442 1442 1442 1442 1442 1442 1443 1443 1443 1444 1445 1445 1446 1446 1447 1449 1449 1450 1451 1451 1452 1454 1455 1456 1457 1459 1460 1461 1461 1462 1463 1464 1465 1466 1467 1468 1469 1470 1470 1470 1470 1469
1440 1440 1440 1440 1440 1440 1440 1440 1440 1441 1441 1441 1442 1442 1443 1444 1445 1445 1446 1446 1447 1448 1449 1450 1452 1453 1454 1455 1455 1456 1456 1458 1459 1460 1461 1461 1462 1464 1464 1465 1465 1464 1463
1438 1438 1438 1438 1438 1438 1438 1438 1438 1438 1438 1439 1439 1439 1440 1440 1440 1441 1442 1442 1443 1444 1445 1446 1447 1448 1449 1450 1450 1451 1452 1453 1453 1454 1454 1455 1457 1457 1458 1459 1459 1459 1458
1437 1436 1436 1436 1436 1435 1435 1435 1436 1435 1435 1435 1435 1436 1436 1437 1437 1437 1438 1439 1440 1440 1441 1442 1443 1444 1444 1445 1446 1446 1447 1447 1447 1448 1448 1449 1450 1451 1452 1452 1453 1452 1452
1435 1434 1434 1433 1433 1433 1433 1433 1433 1433 1433 1432 1432 1433 1433 1433 1434 1434 1435 1435 1436 1437 1437 1438 1439 1439 1440 1440 1441 1441 1441 1442 1442 1442 1442 1443 1444 1445 1446 1446 1446 1446 1446
1433 1433 1432 1431 1431 1431 1431 1431 1431 1431 1430 1430 1430 1430 1430 1430 1431 1431 1431 1432 1432 1433 1433 1434 1435 1435 1435 1435 1436 1436 1436 1437 1437 1437 1437 1438 1438 1439 1439 1440 1440 1440 1439
1432 1431 1430 1429 1429 1428 1428 1428 1428 1428 1428 1428 1428 1428 1428 1427 1428 1428 1428 1428 1429 1429 1429 1430 1430 1430 1430 1431 1431 1431 1431 1432 1432 1432 1432 1432 1433 1433 1433 1434 1434 1434 1433
1430 1429 1429 1428 1427 1427 1426 1426 1426 1427 1426 1426 1426 1426 1425 1425 1425 1425 1425 1425 1425 1426 1426 1426 1426 1426 1426 1426 1427 1427 1427 1427 1427 1427 1427 1427 1427 1428 1428 1428 1428 1428 1428
1430 1429 1428 1427 1426 1426 1425 1424 1424 1424 1424 1424 1423 1423 1423 1422 1422 1422 1422 1422 1422 1422 1422 1422 1422 1422 1422 1422 1422 1422 1422 1423 1423 1423 1423 1423 1423 1422 1423 1423 1423 1423 1422
1429 1428 1427 1426 1425 1425 1424 1423 1423 1422 1421 1421 1421 1420 1420 1419 1419 1419 1419 1419 1418 1418 1418 1418 1418 1418 1418 1418 1418 1418 1418 1418 1418 1418 1418 1418 1418 1418 1418 1418 1417 1417 1417
1428 1427 1426 1425 1424 1423 1423 1422 1421 1420 1420 1419 1418 1418 1418 1417 1416 1416 1416 1415 1415 1415 1415 1415 1414 1414 1414 1414 1413 1413 1413 1413 1413 1413 1413 1413 1413 1413 1413 1413 1413 1412 1412
1426 1425 1424 1423 1422 1421 1421 1420 1419 1418 1417 1417 1416 1415 1415 1414 1413 1413 1413 1413 1412 1412 1411 1411 1411 1410 1410 1410 1409 1409 1409 1409 1408 1408 1408 1408 1408 1408 1408 1408 1408 1408 1407
1425 1424 1423 1422 1420 1420 1419 1418 1417 1416 1415 1415 1414 1413 1413 1412 1411 1411 1410 1410 1409 1409 1408 1407 1407 1407 1406 1406 1405 1405 1404 1404 1404 1404 1403 1404 1404 1403 1403 1403 1403 1403 1403
1423 1422 1421 1420 1419 1418 1417 1416 1415 1414 1413 1413 1412 1411 1410 1410 1409 1408 1407 1407 1406 1406 1405 1404 1403 1403 1403 1402 1401 1401 1400 1400 1400 1399 1399 1399 1399 1399 1399 1398 1398 1398 1398
1422 1420 1419 1418 1417 1416 1415 1414 1413 1412 1411 1410 1409 1408 1408 1407 1406 1405 1404 1404 1403 1402 1402 1401 1400 1400 1399 1399 1398 1397 1397 1396 1396 1396 1395 1395 1395 1394 1394 1394 1394 1394 1394
1420 1419 1417 1416 1415 1414 1413 1412 1410 1409 1409 1408 1407 1406 1405 1404 1403 1402 1401 1400 1400 1399 1398 1397 1397 1396 1395 1395 1394 1393 1393 1392 1392 1391 1391 1391 1390 1390 1390 1390 1390 1390 1390
1418 1417 1415 1414 1413 1412 1410 1409 1408 1407 1406 1405 1404 1403 1402 1401 1400 1399 1398 1397 1396 1395 1395 1394 1393 1392 1391 1391 1390 1389 1389 1388 1388 1387 1387 1387 1386 1386 1386 1386 1386 1386 1386
1416 1414 1413 1412 1410 1409 1408 1407 1405 1404 1403 1402 1401 1400 1399 1398 1396 1395 1394 1393 1392 1391 1391 1390 1389 1388 1387 1387 1386 1385 1385 1384 1384 1383 1383 1383 1382 1382 1382 1382 1382 1382 1381